{"data":{"norad_id":63130,"intl_designator":"2025-042A","name":"COSMOS 2584 (704K)","alt_names":[],"object_type":"PAYLOAD","status":"INACTIVE","operator":null,"country":"CIS","launch_date":"2025-03-02","launch_site_code":"PLMSC","launch_vehicle":null,"mission":null,"orbit_class":"UNKNOWN","rcs_meters":null,"size_class":null,"mass_kg":null,"dimensions":null,"purposes":["nav"],"wikipedia_slug":null,"has_3d_model":false,"image_url":null,"decayed_at":null,"tle_current":{"epoch":"2026-05-24T04:59:41.859168Z","epoch_age_seconds":133723,"freshness":"FRESH","line1":"1 63130U 25042A   26144.20812337 -.00000031  00000+0  00000+0 0  9992","line2":"2 63130  65.0715  73.6167 0006049 232.3879 127.5503  2.13103805  9535","mean_motion":2.13103805,"eccentricity":0.0006049,"inclination_deg":65.0715,"raan_deg":73.6167,"arg_perigee_deg":232.3879,"mean_anomaly_deg":127.5503,"bstar":0,"rev_number":953,"period_min":675.72702420776,"perigee_km":19114.313674308,"apogee_km":19145.173108006,"semimajor_km":25507.880391157,"source":"CELESTRAK","updated_at":"2026-05-25T13:38:23.897453Z"}}}